Location: Home
(42.5358°N, 72.7383°W)
Time: 01:28:56
(UTC-05:00)

Vanguard 1 Rocket - Pass Details

Date: 05 December 2021
Orbit: 651 x 4224 km, 34.3° (Epoch: 23 January)

Event Time Altitude Azimuth Distance (km) Brightness Sun altitude
Exits shadow 02:18:01 47° 128° (SE) 2,984 9.8 -51.8°
Drops below altitude 10° 02:33:05 10° 89° (E) 6,528 12.2 -49.2°
Sets 02:39:19 0° 86° (E) 7,976 12.9 -48.1°
